STARLINK-1914 (47180 NORAD) Tracking and Keplerian Element Data

This shows tracking and keplerian element data for the satellite.

Feedback or suggestion? Click here.




ElementValue
Catalog47180
NameSTARLINK-1914
Epoch Orbit181
Epoch Day60.91667824
Epoch Year2021
RAAN263.7498
Inclination53.0556
Eccentricity0.0003177
Argument of Perigee93.6786
Mean Anonmoly317.2831
Mean Motion15.06397155
Decay Rate0.00012182
L11 47180U 20088BL 21060.91667824 .00012182 00000-0 83532-3 0 9998
L22 47180 53.0556 263.7498 0003177 93.6786 317.2831 15.06397155 1819

Live tracking and technical data element details for STARLINK-1914 (NORAD 47180). STARLINK-1914 can be tracked NOW for your location showing map with azimuth and elevation plus other details from your city location.

Track the satellite on the map from your city or location and see movement details for azimuth, elevation, latitude, longitude, range, height, and movement on the map or in text.







IsCatalogInMostPopularTable: catalog: 47180, numindb: 39
Update: records affected: 1



GetName: 47180 STARLINK-1914

Hit Count: updated at: Tue, 02 Mar 2021 13:47:31 GMT